owner,sensor,date,latitude,longitude,vertical_datum,wind_speed,wind_to_direction,wind_speed_of_gust,qcFlag 
LUMCON,ioos:station:LUMCON:101:1,2019-01-01T00:00:00Z,29.2533,-90.6633,1.0,2.5,277.0,2.7,'1111122,1111122,1111122' 
LUMCON,ioos:station:LUMCON:101:1,2019-01-01T00:15:00Z,29.2533,-90.6633,1.0,1.8,267.0,2.0,'1111122,1111122,1111122' 
LUMCON,ioos:station:LUMCON:101:1,2019-01-01T00:30:00Z,29.2533,-90.6633,1.0,1.3,303.0,1.5,'1111122,1111122,1111122' 
LUMCON,ioos:station:LUMCON:101:1,2019-01-01T00:45:00Z,29.2533,-90.6633,1.0,1.9,310.0,1.9,'1111122,1111122,1111122' 
LUMCON,ioos:station:LUMCON:101:1,2019-01-01T01:00:00Z,29.2533,-90.6633,1.0,0.6,24.0,0.6,'1111122,1111122,1111122' 
LUMCON,ioos:station:LUMCON:101:1,2019-01-01T01:15:00Z,29.2533,-90.6633,1.0,0.6,57.0,0.6,'1111122,1111122,1111122' 
LUMCON,ioos:station:LUMCON:101:1,2019-01-01T01:30:00Z,29.2533,-90.6633,1.0,0.9,0.0,0.9,'1111122,1114422,1111122' 
LUMCON,ioos:station:LUMCON:101:1,2019-01-01T01:45:00Z,29.2533,-90.6633,1.0,0.7,8.0,0.7,'1111122,1111122,1111122' 
LUMCON,ioos:station:LUMCON:101:1,2019-01-01T02:00:00Z,29.2533,-90.6633,1.0,1.1,23.0,1.1,'1111122,1111122,1111122' 
LUMCON,ioos:station:LUMCON:101:1,2019-01-01T02:15:00Z,29.2533,-90.6633,1.0,1.0,76.0,1.1,'1111122,1111122,1111122' 
LUMCON,ioos:station:LUMCON:101:1,2019-01-01T02:30:00Z,29.2533,-90.6633,1.0,1.2,73.0,1.3,'1111122,1111122,1111122' 
LUMCON,ioos:station:LUMCON:101:1,2019-01-01T02:45:00Z,29.2533,-90.6633,1.0,2.0,85.0,2.1,'1111122,1111122,1111122' 
LUMCON,ioos:station:LUMCON:101:1,2019-01-01T03:00:00Z,29.2533,-90.6633,1.0,2.9,84.0,3.0,'1111122,1111122,1111122' 
LUMCON,ioos:station:LUMCON:101:1,2019-01-01T03:15:00Z,29.2533,-90.6633,1.0,2.3,94.0,2.4,'1111122,1111122,1111122' 
LUMCON,ioos:station:LUMCON:101:1,2019-01-01T03:30:00Z,29.2533,-90.6633,1.0,1.9,84.0,2.1,'1111122,1111122,1111122' 
LUMCON,ioos:station:LUMCON:101:1,2019-01-01T03:45:00Z,29.2533,-90.6633,1.0,2.6,90.0,2.8,'1111122,1111122,1111122' 
LUMCON,ioos:station:LUMCON:101:1,2019-01-01T04:00:00Z,29.2533,-90.6633,1.0,3.0,95.0,3.1,'1111122,1111122,1111122' 
LUMCON,ioos:station:LUMCON:101:1,2019-01-01T04:15:00Z,29.2533,-90.6633,1.0,3.3,95.0,3.6,'1111122,1111122,1111122' 
LUMCON,ioos:station:LUMCON:101:1,2019-01-01T04:30:00Z,29.2533,-90.6633,1.0,3.1,96.0,3.5,'1111122,1111122,1111122' 
LUMCON,ioos:station:LUMCON:101:1,2019-01-01T04:45:00Z,29.2533,-90.6633,1.0,3.1,99.0,3.3,'1111122,1111122,1111122' 
LUMCON,ioos:station:LUMCON:101:1,2019-01-01T05:00:00Z,29.2533,-90.6633,1.0,3.3,89.0,3.5,'1111122,1111122,1111122' 
LUMCON,ioos:station:LUMCON:101:1,2019-01-01T05:15:00Z,29.2533,-90.6633,1.0,2.7,91.0,2.8,'1111122,1111122,1111122' 
LUMCON,ioos:station:LUMCON:101:1,2019-01-01T05:30:00Z,29.2533,-90.6633,1.0,2.5,90.0,2.6,'1111122,1111122,1111122' 
LUMCON,ioos:station:LUMCON:101:1,2019-01-01T05:45:00Z,29.2533,-90.6633,1.0,0.5,221.0,0.6,'1111122,1111122,1111122' 
LUMCON,ioos:station:LUMCON:101:1,2019-01-01T06:00:00Z,29.2533,-90.6633,1.0,0.9,177.0,1.0,'1111122,1111122,1111122' 
LUMCON,ioos:station:LUMCON:101:1,2019-01-01T06:15:00Z,29.2533,-90.6633,1.0,2.3,257.0,2.5,'1111122,1111122,1111122' 
LUMCON,ioos:station:LUMCON:101:1,2019-01-01T06:30:00Z,29.2533,-90.6633,1.0,1.7,122.0,1.8,'1111122,1111122,1111122' 
LUMCON,ioos:station:LUMCON:101:1,2019-01-01T06:45:00Z,29.2533,-90.6633,1.0,0.9,296.0,0.9,'1111122,1111122,1111122' 
LUMCON,ioos:station:LUMCON:101:1,2019-01-01T07:00:00Z,29.2533,-90.6633,1.0,2.6,262.0,2.9,'1111122,1111122,1111122' 
LUMCON,ioos:station:LUMCON:101:1,2019-01-01T07:15:00Z,29.2533,-90.6633,1.0,1.7,277.0,1.7,'1111122,1111122,1111122' 
LUMCON,ioos:station:LUMCON:101:1,2019-01-01T07:30:00Z,29.2533,-90.6633,1.0,2.0,277.0,2.0,'1111122,1111122,1111122' 
LUMCON,ioos:station:LUMCON:101:1,2019-01-01T07:45:00Z,29.2533,-90.6633,1.0,1.2,290.0,1.2,'1111122,1111122,1111122' 
LUMCON,ioos:station:LUMCON:101:1,2019-01-01T08:00:00Z,29.2533,-90.6633,1.0,0.7,309.0,0.8,'1111122,1111122,1111122' 
LUMCON,ioos:station:LUMCON:101:1,2019-01-01T08:15:00Z,29.2533,-90.6633,1.0,1.5,301.0,1.6,'1111122,1111122,1111122' 
LUMCON,ioos:station:LUMCON:101:1,2019-01-01T08:30:00Z,29.2533,-90.6633,1.0,0.8,314.0,0.9,'1111122,1111122,1111122' 
LUMCON,ioos:station:LUMCON:101:1,2019-01-01T08:45:00Z,29.2533,-90.6633,1.0,1.1,308.0,1.1,'1111122,1111122,1111122' 
LUMCON,ioos:station:LUMCON:101:1,2019-01-01T09:00:00Z,29.2533,-90.6633,1.0,3.5,283.0,3.7,'1111122,1111122,1111122' 
LUMCON,ioos:station:LUMCON:101:1,2019-01-01T09:15:00Z,29.2533,-90.6633,1.0,2.2,323.0,2.3,'1111122,1111122,1111122' 
LUMCON,ioos:station:LUMCON:101:1,2019-01-01T09:30:00Z,29.2533,-90.6633,1.0,3.9,289.0,4.1,'1111122,1111122,1111122' 
LUMCON,ioos:station:LUMCON:101:1,2019-01-01T09:45:00Z,29.2533,-90.6633,1.0,1.8,292.0,2.2,'1111122,1111122,1111122' 
LUMCON,ioos:station:LUMCON:101:1,2019-01-01T10:00:00Z,29.2533,-90.6633,1.0,2.1,321.0,2.2,'1111122,1111122,1111122' 
LUMCON,ioos:station:LUMCON:101:1,2019-01-01T10:15:00Z,29.2533,-90.6633,1.0,2.5,298.0,2.7,'1111122,1111122,1111122' 
LUMCON,ioos:station:LUMCON:101:1,2019-01-01T10:30:00Z,29.2533,-90.6633,1.0,2.4,324.0,2.6,'1111122,1111122,1111122' 
LUMCON,ioos:station:LUMCON:101:1,2019-01-01T10:45:00Z,29.2533,-90.6633,1.0,3.0,284.0,3.3,'1111122,1111122,1111122' 
LUMCON,ioos:station:LUMCON:101:1,2019-01-01T11:00:00Z,29.2533,-90.6633,1.0,3.5,289.0,3.7,'1111122,1111122,1111122' 
LUMCON,ioos:station:LUMCON:101:1,2019-01-01T11:15:00Z,29.2533,-90.6633,1.0,3.9,309.0,4.5,'1111122,1111122,1111122' 
LUMCON,ioos:station:LUMCON:101:1,2019-01-01T11:30:00Z,29.2533,-90.6633,1.0,3.2,321.0,3.3,'1111122,1111122,1111122' 
LUMCON,ioos:station:LUMCON:101:1,2019-01-01T11:45:00Z,29.2533,-90.6633,1.0,3.9,321.0,4.2,'1111122,1111122,1111122' 
LUMCON,ioos:station:LUMCON:101:1,2019-01-01T12:00:00Z,29.2533,-90.6633,1.0,3.2,300.0,3.6,'1111122,1111122,1111122' 
LUMCON,ioos:station:LUMCON:101:1,2019-01-01T12:15:00Z,29.2533,-90.6633,1.0,3.9,314.0,4.1,'1111122,1111122,1111122' 
LUMCON,ioos:station:LUMCON:101:1,2019-01-01T12:30:00Z,29.2533,-90.6633,1.0,4.5,333.0,5.0,'1111122,1111122,1111122' 
LUMCON,ioos:station:LUMCON:101:1,2019-01-01T12:45:00Z,29.2533,-90.6633,1.0,3.2,339.0,3.4,'1111122,1111122,1111122' 
LUMCON,ioos:station:LUMCON:101:1,2019-01-01T13:00:00Z,29.2533,-90.6633,1.0,3.4,338.0,3.7,'1111122,1111122,1111122' 
LUMCON,ioos:station:LUMCON:101:1,2019-01-01T13:15:00Z,29.2533,-90.6633,1.0,4.9,323.0,5.5,'1111122,1111122,1111122' 
LUMCON,ioos:station:LUMCON:101:1,2019-01-01T13:30:00Z,29.2533,-90.6633,1.0,5.2,336.0,5.5,'1111122,1111122,1111122' 
LUMCON,ioos:station:LUMCON:101:1,2019-01-01T13:45:00Z,29.2533,-90.6633,1.0,3.7,350.0,3.9,'1111122,1111122,1111122' 
LUMCON,ioos:station:LUMCON:101:1,2019-01-01T14:00:00Z,29.2533,-90.6633,1.0,4.7,344.0,5.0,'1111122,1111122,1111122' 
LUMCON,ioos:station:LUMCON:101:1,2019-01-01T14:15:00Z,29.2533,-90.6633,1.0,5.1,340.0,5.4,'1111122,1111122,1111122' 
LUMCON,ioos:station:LUMCON:101:1,2019-01-01T14:30:00Z,29.2533,-90.6633,1.0,4.7,339.0,5.1,'1111122,1111122,1111122' 
LUMCON,ioos:station:LUMCON:101:1,2019-01-01T14:45:00Z,29.2533,-90.6633,1.0,4.8,358.0,5.2,'1111122,1111122,1111122' 
LUMCON,ioos:station:LUMCON:101:1,2019-01-01T15:00:00Z,29.2533,-90.6633,1.0,4.0,12.0,4.0,'1111122,1111122,1111122' 
LUMCON,ioos:station:LUMCON:101:1,2019-01-01T15:15:00Z,29.2533,-90.6633,1.0,3.5,22.0,3.8,'1111122,1111122,1111122' 
LUMCON,ioos:station:LUMCON:101:1,2019-01-01T15:30:00Z,29.2533,-90.6633,1.0,4.1,18.0,4.4,'1111122,1111122,1111122' 
LUMCON,ioos:station:LUMCON:101:1,2019-01-01T15:45:00Z,29.2533,-90.6633,1.0,4.8,25.0,5.2,'1111122,1111122,1111122' 
LUMCON,ioos:station:LUMCON:101:1,2019-01-01T16:00:00Z,29.2533,-90.6633,1.0,3.6,356.0,3.9,'1111122,1111122,1111122' 
LUMCON,ioos:station:LUMCON:101:1,2019-01-01T16:15:00Z,29.2533,-90.6633,1.0,3.9,9.0,4.0,'1111122,1111122,1111122' 
LUMCON,ioos:station:LUMCON:101:1,2019-01-01T16:30:00Z,29.2533,-90.6633,1.0,3.1,10.0,3.5,'1111122,1111122,1111122' 
LUMCON,ioos:station:LUMCON:101:1,2019-01-01T16:45:00Z,29.2533,-90.6633,1.0,4.5,8.0,4.6,'1111122,1111122,1111122' 
LUMCON,ioos:station:LUMCON:101:1,2019-01-01T17:00:00Z,29.2533,-90.6633,1.0,4.1,20.0,4.3,'1111122,1111122,1111122' 
LUMCON,ioos:station:LUMCON:101:1,2019-01-01T17:15:00Z,29.2533,-90.6633,1.0,5.2,356.0,5.8,'1111122,1111122,1111122' 
LUMCON,ioos:station:LUMCON:101:1,2019-01-01T17:30:00Z,29.2533,-90.6633,1.0,5.9,330.0,6.3,'1111122,1111122,1111122' 
LUMCON,ioos:station:LUMCON:101:1,2019-01-01T17:45:00Z,29.2533,-90.6633,1.0,5.2,4.0,5.6,'1111122,1111122,1111122' 
LUMCON,ioos:station:LUMCON:101:1,2019-01-01T18:00:00Z,29.2533,-90.6633,1.0,5.3,6.0,5.5,'1111122,1111122,1111122' 
LUMCON,ioos:station:LUMCON:101:1,2019-01-01T18:15:00Z,29.2533,-90.6633,1.0,4.7,9.0,4.9,'1111122,1111122,1111122' 
LUMCON,ioos:station:LUMCON:101:1,2019-01-01T18:30:00Z,29.2533,-90.6633,1.0,2.8,351.0,4.5,'1111122,1111122,1111122' 
LUMCON,ioos:station:LUMCON:101:1,2019-01-01T18:45:00Z,29.2533,-90.6633,1.0,3.6,1.0,3.8,'1111122,1111122,1111122' 
LUMCON,ioos:station:LUMCON:101:1,2019-01-01T19:00:00Z,29.2533,-90.6633,1.0,3.7,23.0,4.0,'1111122,1111122,1111122' 
LUMCON,ioos:station:LUMCON:101:1,2019-01-01T19:15:00Z,29.2533,-90.6633,1.0,3.3,24.0,3.6,'1111122,1111122,1111122' 
LUMCON,ioos:station:LUMCON:101:1,2019-01-01T19:30:00Z,29.2533,-90.6633,1.0,4.6,28.0,5.2,'1111122,1111122,1111122' 
LUMCON,ioos:station:LUMCON:101:1,2019-01-01T19:45:00Z,29.2533,-90.6633,1.0,4.0,20.0,4.3,'1111122,1111122,1111122' 
LUMCON,ioos:station:LUMCON:101:1,2019-01-01T20:00:00Z,29.2533,-90.6633,1.0,4.5,18.0,4.7,'1111122,1111122,1111122' 
LUMCON,ioos:station:LUMCON:101:1,2019-01-01T20:15:00Z,29.2533,-90.6633,1.0,2.3,18.0,2.5,'1111122,1111122,1111122' 
LUMCON,ioos:station:LUMCON:101:1,2019-01-01T20:30:00Z,29.2533,-90.6633,1.0,4.9,34.0,5.0,'1111122,1111122,1111122' 
LUMCON,ioos:station:LUMCON:101:1,2019-01-01T20:45:00Z,29.2533,-90.6633,1.0,3.8,2.0,4.0,'1111122,1111122,1111122' 
LUMCON,ioos:station:LUMCON:101:1,2019-01-01T21:00:00Z,29.2533,-90.6633,1.0,1.5,16.0,2.1,'1111122,1111122,1111122' 
LUMCON,ioos:station:LUMCON:101:1,2019-01-01T21:15:00Z,29.2533,-90.6633,1.0,2.5,47.0,2.7,'1111122,1111122,1111122' 
LUMCON,ioos:station:LUMCON:101:1,2019-01-01T21:30:00Z,29.2533,-90.6633,1.0,3.4,25.0,3.6,'1111122,1111122,1111122' 
LUMCON,ioos:station:LUMCON:101:1,2019-01-01T21:45:00Z,29.2533,-90.6633,1.0,3.9,30.0,4.1,'1111122,1111122,1111122' 
LUMCON,ioos:station:LUMCON:101:1,2019-01-01T22:00:00Z,29.2533,-90.6633,1.0,3.5,25.0,3.6,'1111122,1111122,1111122' 
LUMCON,ioos:station:LUMCON:101:1,2019-01-01T22:15:00Z,29.2533,-90.6633,1.0,1.9,19.0,2.0,'1111122,1111122,1111122' 
LUMCON,ioos:station:LUMCON:101:1,2019-01-01T22:30:00Z,29.2533,-90.6633,1.0,3.2,344.0,3.9,'1111122,1111122,1111122' 
LUMCON,ioos:station:LUMCON:101:1,2019-01-01T22:45:00Z,29.2533,-90.6633,1.0,3.9,6.0,4.1,'1111122,1111122,1111122' 
LUMCON,ioos:station:LUMCON:101:1,2019-01-01T23:00:00Z,29.2533,-90.6633,1.0,2.8,19.0,2.9,'1111122,1111122,1111122' 
LUMCON,ioos:station:LUMCON:101:1,2019-01-01T23:15:00Z,29.2533,-90.6633,1.0,4.0,2.0,4.4,'1111122,1111122,1111122' 
LUMCON,ioos:station:LUMCON:101:1,2019-01-01T23:30:00Z,29.2533,-90.6633,1.0,3.3,5.0,3.6,'1111122,1111122,1111122' 
LUMCON,ioos:station:LUMCON:101:1,2019-01-01T23:45:00Z,29.2533,-90.6633,1.0,3.7,347.0,3.9,'1111122,1111122,1111122' 
LUMCON,ioos:station:LUMCON:101:1,2019-01-02T00:00:00Z,29.2533,-90.6633,1.0,4.2,339.0,5.0,'1111122,1111122,1111122' 
LUMCON,ioos:station:LUMCON:101:1,2019-01-02T00:15:00Z,29.2533,-90.6633,1.0,5.8,1.0,6.0,'1111122,1111122,1111122' 
LUMCON,ioos:station:LUMCON:101:1,2019-01-02T00:30:00Z,29.2533,-90.6633,1.0,5.9,1.0,6.0,'1111122,1111122,1111122' 
LUMCON,ioos:station:LUMCON:101:1,2019-01-02T00:45:00Z,29.2533,-90.6633,1.0,3.8,0.0,4.0,'1111122,1114422,1111122' 
LUMCON,ioos:station:LUMCON:101:1,2019-01-02T01:00:00Z,29.2533,-90.6633,1.0,5.3,348.0,5.6,'1111122,1111122,1111122' 
LUMCON,ioos:station:LUMCON:101:1,2019-01-02T01:15:00Z,29.2533,-90.6633,1.0,4.3,358.0,4.8,'1111122,1111122,1111122' 
LUMCON,ioos:station:LUMCON:101:1,2019-01-02T01:30:00Z,29.2533,-90.6633,1.0,4.1,3.0,4.8,'1111122,1111122,1111122' 
LUMCON,ioos:station:LUMCON:101:1,2019-01-02T01:45:00Z,29.2533,-90.6633,1.0,2.4,0.0,2.7,'1111122,1114422,1111122' 
LUMCON,ioos:station:LUMCON:101:1,2019-01-02T02:00:00Z,29.2533,-90.6633,1.0,3.0,7.0,3.6,'1111122,1111122,1111122' 
LUMCON,ioos:station:LUMCON:101:1,2019-01-02T02:15:00Z,29.2533,-90.6633,1.0,3.3,5.0,4.0,'1111122,1111122,1111122' 
LUMCON,ioos:station:LUMCON:101:1,2019-01-02T02:30:00Z,29.2533,-90.6633,1.0,4.4,19.0,4.6,'1111122,1111122,1111122' 
LUMCON,ioos:station:LUMCON:101:1,2019-01-02T02:45:00Z,29.2533,-90.6633,1.0,4.3,21.0,4.6,'1111122,1111122,1111122' 
LUMCON,ioos:station:LUMCON:101:1,2019-01-02T03:00:00Z,29.2533,-90.6633,1.0,2.5,3.0,2.7,'1111122,1111122,1111122' 
LUMCON,ioos:station:LUMCON:101:1,2019-01-02T03:15:00Z,29.2533,-90.6633,1.0,3.1,15.0,3.4,'1111122,1111122,1111122' 
LUMCON,ioos:station:LUMCON:101:1,2019-01-02T03:30:00Z,29.2533,-90.6633,1.0,3.8,9.0,4.3,'1111122,1111122,1111122' 
LUMCON,ioos:station:LUMCON:101:1,2019-01-02T03:45:00Z,29.2533,-90.6633,1.0,3.0,356.0,3.3,'1111122,1111122,1111122' 
LUMCON,ioos:station:LUMCON:101:1,2019-01-02T04:00:00Z,29.2533,-90.6633,1.0,4.0,355.0,4.2,'1111122,1111122,1111122' 
LUMCON,ioos:station:LUMCON:101:1,2019-01-02T04:15:00Z,29.2533,-90.6633,1.0,3.3,13.0,3.3,'1111122,1111122,1111122' 
LUMCON,ioos:station:LUMCON:101:1,2019-01-02T04:30:00Z,29.2533,-90.6633,1.0,2.7,21.0,3.0,'1111122,1111122,1111122' 
LUMCON,ioos:station:LUMCON:101:1,2019-01-02T04:45:00Z,29.2533,-90.6633,1.0,3.3,13.0,3.5,'1111122,1111122,1111122' 
LUMCON,ioos:station:LUMCON:101:1,2019-01-02T05:00:00Z,29.2533,-90.6633,1.0,3.8,352.0,4.1,'1111122,1111122,1111122' 
LUMCON,ioos:station:LUMCON:101:1,2019-01-02T05:15:00Z,29.2533,-90.6633,1.0,4.5,355.0,4.7,'1111122,1111122,1111122' 
LUMCON,ioos:station:LUMCON:101:1,2019-01-02T05:30:00Z,29.2533,-90.6633,1.0,4.4,7.0,4.6,'1111122,1111122,1111122' 
LUMCON,ioos:station:LUMCON:101:1,2019-01-02T05:45:00Z,29.2533,-90.6633,1.0,2.3,12.0,2.5,'1111122,1111122,1111122' 
LUMCON,ioos:station:LUMCON:101:1,2019-01-02T06:00:00Z,29.2533,-90.6633,1.0,3.4,12.0,3.6,'1111122,1111122,1111122' 
LUMCON,ioos:station:LUMCON:101:1,2019-01-02T06:15:00Z,29.2533,-90.6633,1.0,3.6,32.0,4.0,'1111122,1111122,1111122' 
LUMCON,ioos:station:LUMCON:101:1,2019-01-02T06:30:00Z,29.2533,-90.6633,1.0,4.5,20.0,5.0,'1111122,1111122,1111122' 
LUMCON,ioos:station:LUMCON:101:1,2019-01-02T06:45:00Z,29.2533,-90.6633,1.0,4.5,29.0,5.0,'1111122,1111122,1111122' 
LUMCON,ioos:station:LUMCON:101:1,2019-01-02T07:00:00Z,29.2533,-90.6633,1.0,6.6,36.0,7.0,'1111122,1111122,1111122' 
LUMCON,ioos:station:LUMCON:101:1,2019-01-02T07:15:00Z,29.2533,-90.6633,1.0,6.3,49.0,6.8,'1111122,1111122,1111122' 
LUMCON,ioos:station:LUMCON:101:1,2019-01-02T07:30:00Z,29.2533,-90.6633,1.0,2.8,32.0,3.3,'1111122,1111122,1111122' 
LUMCON,ioos:station:LUMCON:101:1,2019-01-02T07:45:00Z,29.2533,-90.6633,1.0,6.3,26.0,6.7,'1111122,1111122,1111122' 
LUMCON,ioos:station:LUMCON:101:1,2019-01-02T08:00:00Z,29.2533,-90.6633,1.0,6.2,31.0,7.6,'1111122,1111122,1111122' 
LUMCON,ioos:station:LUMCON:101:1,2019-01-02T08:15:00Z,29.2533,-90.6633,1.0,6.8,36.0,7.6,'1111122,1111122,1111122' 
LUMCON,ioos:station:LUMCON:101:1,2019-01-02T08:30:00Z,29.2533,-90.6633,1.0,3.5,55.0,3.7,'1111122,1111122,1111122' 
LUMCON,ioos:station:LUMCON:101:1,2019-01-02T08:45:00Z,29.2533,-90.6633,1.0,3.3,46.0,3.7,'1111122,1111122,1111122' 
LUMCON,ioos:station:LUMCON:101:1,2019-01-02T09:00:00Z,29.2533,-90.6633,1.0,3.0,29.0,3.6,'1111122,1111122,1111122' 
LUMCON,ioos:station:LUMCON:101:1,2019-01-02T09:15:00Z,29.2533,-90.6633,1.0,2.9,47.0,3.3,'1111122,1111122,1111122' 
LUMCON,ioos:station:LUMCON:101:1,2019-01-02T09:30:00Z,29.2533,-90.6633,1.0,3.5,37.0,3.7,'1111122,1111122,1111122' 
LUMCON,ioos:station:LUMCON:101:1,2019-01-02T09:45:00Z,29.2533,-90.6633,1.0,2.8,31.0,3.1,'1111122,1111122,1111122' 
LUMCON,ioos:station:LUMCON:101:1,2019-01-02T10:00:00Z,29.2533,-90.6633,1.0,3.3,26.0,3.6,'1111122,1111122,1111122' 
LUMCON,ioos:station:LUMCON:101:1,2019-01-02T10:15:00Z,29.2533,-90.6633,1.0,4.7,36.0,5.1,'1111122,1111122,1111122' 
LUMCON,ioos:station:LUMCON:101:1,2019-01-02T10:30:00Z,29.2533,-90.6633,1.0,2.8,34.0,2.9,'1111122,1111122,1111122' 
LUMCON,ioos:station:LUMCON:101:1,2019-01-02T10:45:00Z,29.2533,-90.6633,1.0,1.9,37.0,2.1,'1111122,1111122,1111122' 
LUMCON,ioos:station:LUMCON:101:1,2019-01-02T11:00:00Z,29.2533,-90.6633,1.0,3.6,58.0,4.1,'1111122,1111122,1111122' 
LUMCON,ioos:station:LUMCON:101:1,2019-01-02T11:15:00Z,29.2533,-90.6633,1.0,3.5,68.0,3.8,'1111122,1111122,1111122' 
LUMCON,ioos:station:LUMCON:101:1,2019-01-02T11:30:00Z,29.2533,-90.6633,1.0,4.4,58.0,4.7,'1111122,1111122,1111122' 
LUMCON,ioos:station:LUMCON:101:1,2019-01-02T11:45:00Z,29.2533,-90.6633,1.0,2.8,65.0,3.7,'1111122,1111122,1111122' 
LUMCON,ioos:station:LUMCON:101:1,2019-01-02T12:00:00Z,29.2533,-90.6633,1.0,2.7,44.0,3.0,'1111122,1111122,1111122' 
LUMCON,ioos:station:LUMCON:101:1,2019-01-02T12:15:00Z,29.2533,-90.6633,1.0,3.5,52.0,3.9,'1111122,1111122,1111122' 
LUMCON,ioos:station:LUMCON:101:1,2019-01-02T12:30:00Z,29.2533,-90.6633,1.0,4.5,62.0,4.7,'1111122,1111122,1111122' 
LUMCON,ioos:station:LUMCON:101:1,2019-01-02T12:45:00Z,29.2533,-90.6633,1.0,4.0,58.0,4.4,'1111122,1111122,1111122' 
LUMCON,ioos:station:LUMCON:101:1,2019-01-02T13:00:00Z,29.2533,-90.6633,1.0,1.9,42.0,2.1,'1111122,1111122,1111122' 
LUMCON,ioos:station:LUMCON:101:1,2019-01-02T13:15:00Z,29.2533,-90.6633,1.0,2.0,17.0,2.7,'1111122,1111122,1111122' 
LUMCON,ioos:station:LUMCON:101:1,2019-01-02T13:30:00Z,29.2533,-90.6633,1.0,3.2,39.0,3.5,'1111122,1111122,1111122' 
LUMCON,ioos:station:LUMCON:101:1,2019-01-02T13:45:00Z,29.2533,-90.6633,1.0,2.8,33.0,3.1,'1111122,1111122,1111122' 
LUMCON,ioos:station:LUMCON:101:1,2019-01-02T14:00:00Z,29.2533,-90.6633,1.0,2.8,61.0,3.4,'1111122,1111122,1111122' 
LUMCON,ioos:station:LUMCON:101:1,2019-01-02T14:15:00Z,29.2533,-90.6633,1.0,3.7,46.0,5.0,'1111122,1111122,1111122' 
LUMCON,ioos:station:LUMCON:101:1,2019-01-02T14:30:00Z,29.2533,-90.6633,1.0,2.2,28.0,2.6,'1111122,1111122,1111122' 
LUMCON,ioos:station:LUMCON:101:1,2019-01-02T14:45:00Z,29.2533,-90.6633,1.0,3.0,43.0,3.4,'1111122,1111122,1111122' 
LUMCON,ioos:station:LUMCON:101:1,2019-01-02T15:00:00Z,29.2533,-90.6633,1.0,3.4,55.0,4.1,'1111122,1111122,1111122' 
LUMCON,ioos:station:LUMCON:101:1,2019-01-02T15:15:00Z,29.2533,-90.6633,1.0,4.9,66.0,6.8,'1111122,1111122,1111122' 
LUMCON,ioos:station:LUMCON:101:1,2019-01-02T15:30:00Z,29.2533,-90.6633,1.0,3.8,63.0,4.4,'1111122,1111122,1111122' 
LUMCON,ioos:station:LUMCON:101:1,2019-01-02T15:45:00Z,29.2533,-90.6633,1.0,4.0,62.0,4.2,'1111122,1111122,1111122' 
LUMCON,ioos:station:LUMCON:101:1,2019-01-02T16:00:00Z,29.2533,-90.6633,1.0,2.7,68.0,2.9,'1111122,1111122,1111122' 
LUMCON,ioos:station:LUMCON:101:1,2019-01-02T16:15:00Z,29.2533,-90.6633,1.0,3.1,77.0,3.4,'1111122,1111122,1111122' 
LUMCON,ioos:station:LUMCON:101:1,2019-01-02T16:30:00Z,29.2533,-90.6633,1.0,6.2,61.0,6.7,'1111122,1111122,1111122' 
LUMCON,ioos:station:LUMCON:101:1,2019-01-02T16:45:00Z,29.2533,-90.6633,1.0,5.1,78.0,5.6,'1111122,1111122,1111122' 
LUMCON,ioos:station:LUMCON:101:1,2019-01-02T17:00:00Z,29.2533,-90.6633,1.0,5.0,73.0,5.4,'1111122,1111122,1111122' 
LUMCON,ioos:station:LUMCON:101:1,2019-01-02T17:15:00Z,29.2533,-90.6633,1.0,5.2,67.0,6.1,'1111122,1111122,1111122' 
LUMCON,ioos:station:LUMCON:101:1,2019-01-02T17:30:00Z,29.2533,-90.6633,1.0,6.4,71.0,6.5,'1111122,1111122,1111122' 
LUMCON,ioos:station:LUMCON:101:1,2019-01-02T17:45:00Z,29.2533,-90.6633,1.0,3.2,69.0,4.0,'1111122,1111122,1111122' 
LUMCON,ioos:station:LUMCON:101:1,2019-01-02T18:00:00Z,29.2533,-90.6633,1.0,3.5,57.0,3.6,'1111122,1111122,1111122' 
LUMCON,ioos:station:LUMCON:101:1,2019-01-02T18:15:00Z,29.2533,-90.6633,1.0,4.1,71.0,4.4,'1111122,1111122,1111122' 
LUMCON,ioos:station:LUMCON:101:1,2019-01-02T18:30:00Z,29.2533,-90.6633,1.0,4.9,73.0,5.6,'1111122,1111122,1111122' 
LUMCON,ioos:station:LUMCON:101:1,2019-01-02T18:45:00Z,29.2533,-90.6633,1.0,5.3,78.0,5.9,'1111122,1111122,1111122' 
LUMCON,ioos:station:LUMCON:101:1,2019-01-02T19:00:00Z,29.2533,-90.6633,1.0,4.3,75.0,4.7,'1111122,1111122,1111122' 
LUMCON,ioos:station:LUMCON:101:1,2019-01-02T19:15:00Z,29.2533,-90.6633,1.0,3.7,90.0,4.3,'1111122,1111122,1111122' 
LUMCON,ioos:station:LUMCON:101:1,2019-01-02T19:30:00Z,29.2533,-90.6633,1.0,3.2,95.0,3.6,'1111122,1111122,1111122' 
LUMCON,ioos:station:LUMCON:101:1,2019-01-02T19:45:00Z,29.2533,-90.6633,1.0,3.3,64.0,3.7,'1111122,1111122,1111122' 
LUMCON,ioos:station:LUMCON:101:1,2019-01-02T20:00:00Z,29.2533,-90.6633,1.0,3.7,108.0,4.1,'1111122,1111122,1111122' 
LUMCON,ioos:station:LUMCON:101:1,2019-01-02T20:15:00Z,29.2533,-90.6633,1.0,3.4,88.0,3.7,'1111122,1111122,1111122' 
LUMCON,ioos:station:LUMCON:101:1,2019-01-02T20:30:00Z,29.2533,-90.6633,1.0,2.7,84.0,2.8,'1111122,1111122,1111122' 
LUMCON,ioos:station:LUMCON:101:1,2019-01-02T20:45:00Z,29.2533,-90.6633,1.0,3.1,118.0,3.5,'1111122,1111122,1111122' 
LUMCON,ioos:station:LUMCON:101:1,2019-01-02T21:00:00Z,29.2533,-90.6633,1.0,3.4,102.0,3.8,'1111122,1111122,1111122' 
LUMCON,ioos:station:LUMCON:101:1,2019-01-02T21:15:00Z,29.2533,-90.6633,1.0,3.7,93.0,3.9,'1111122,1111122,1111122' 
LUMCON,ioos:station:LUMCON:101:1,2019-01-02T21:30:00Z,29.2533,-90.6633,1.0,4.0,94.0,4.5,'1111122,1111122,1111122' 
LUMCON,ioos:station:LUMCON:101:1,2019-01-02T21:45:00Z,29.2533,-90.6633,1.0,4.1,94.0,4.6,'1111122,1111122,1111122' 
LUMCON,ioos:station:LUMCON:101:1,2019-01-02T22:00:00Z,29.2533,-90.6633,1.0,3.3,89.0,3.4,'1111122,1111122,1111122' 
LUMCON,ioos:station:LUMCON:101:1,2019-01-02T22:15:00Z,29.2533,-90.6633,1.0,4.0,115.0,4.2,'1111122,1111122,1111122' 
LUMCON,ioos:station:LUMCON:101:1,2019-01-02T22:30:00Z,29.2533,-90.6633,1.0,4.7,110.0,5.1,'1111122,1111122,1111122' 
LUMCON,ioos:station:LUMCON:101:1,2019-01-02T22:45:00Z,29.2533,-90.6633,1.0,5.0,90.0,5.5,'1111122,1111122,1111122' 
LUMCON,ioos:station:LUMCON:101:1,2019-01-02T23:00:00Z,29.2533,-90.6633,1.0,3.8,84.0,4.1,'1111122,1111122,1111122' 
LUMCON,ioos:station:LUMCON:101:1,2019-01-02T23:15:00Z,29.2533,-90.6633,1.0,4.1,109.0,4.5,'1111122,1111122,1111122' 
LUMCON,ioos:station:LUMCON:101:1,2019-01-02T23:30:00Z,29.2533,-90.6633,1.0,4.6,104.0,5.0,'1111122,1111122,1111122' 
LUMCON,ioos:station:LUMCON:101:1,2019-01-02T23:45:00Z,29.2533,-90.6633,1.0,3.1,88.0,3.8,'1111122,1111122,1111122' 
LUMCON,ioos:station:LUMCON:101:1,2019-01-03T00:00:00Z,29.2533,-90.6633,1.0,3.7,86.0,4.3,'1111122,1111122,1111122' 
LUMCON,ioos:station:LUMCON:101:1,2019-01-03T00:15:00Z,29.2533,-90.6633,1.0,3.1,101.0,3.6,'1111122,1111122,1111122' 
LUMCON,ioos:station:LUMCON:101:1,2019-01-03T00:30:00Z,29.2533,-90.6633,1.0,3.6,102.0,3.8,'1111122,1111122,1111122' 
LUMCON,ioos:station:LUMCON:101:1,2019-01-03T00:45:00Z,29.2533,-90.6633,1.0,3.1,107.0,3.4,'1111122,1111122,1111122' 
LUMCON,ioos:station:LUMCON:101:1,2019-01-03T01:00:00Z,29.2533,-90.6633,1.0,3.1,108.0,3.3,'1111122,1111122,1111122' 
LUMCON,ioos:station:LUMCON:101:1,2019-01-03T01:15:00Z,29.2533,-90.6633,1.0,3.3,113.0,3.6,'1111122,1111122,1111122' 
LUMCON,ioos:station:LUMCON:101:1,2019-01-03T01:30:00Z,29.2533,-90.6633,1.0,2.8,128.0,3.0,'1111122,1111122,1111122' 
LUMCON,ioos:station:LUMCON:101:1,2019-01-03T01:45:00Z,29.2533,-90.6633,1.0,1.3,151.0,1.4,'1111122,1111122,1111122' 
LUMCON,ioos:station:LUMCON:101:1,2019-01-03T02:00:00Z,29.2533,-90.6633,1.0,1.1,145.0,1.2,'1111122,1111122,1111122' 
LUMCON,ioos:station:LUMCON:101:1,2019-01-03T02:15:00Z,29.2533,-90.6633,1.0,2.1,141.0,2.3,'1111122,1111122,1111122' 
LUMCON,ioos:station:LUMCON:101:1,2019-01-03T02:30:00Z,29.2533,-90.6633,1.0,2.7,112.0,2.8,'1111122,1111122,1111122' 
LUMCON,ioos:station:LUMCON:101:1,2019-01-03T02:45:00Z,29.2533,-90.6633,1.0,2.0,114.0,2.3,'1111122,1111122,1111122' 
LUMCON,ioos:station:LUMCON:101:1,2019-01-03T03:00:00Z,29.2533,-90.6633,1.0,4.1,124.0,4.3,'1111122,1111122,1111122' 
LUMCON,ioos:station:LUMCON:101:1,2019-01-03T03:15:00Z,29.2533,-90.6633,1.0,3.3,141.0,3.5,'1111122,1111122,1111122' 
LUMCON,ioos:station:LUMCON:101:1,2019-01-03T03:30:00Z,29.2533,-90.6633,1.0,3.0,136.0,3.2,'1111122,1111122,1111122' 